Wind_Speed
19 20 17 14 13 12 10 10 17 21 22 22 26 25 27 30 31 36 40 41 35 33 31 26 22 25 30 34 34 36 37 46 36 38 43 48 47 51 50 51 52 50 49 48 48
23 22 19 19 17 13 11 14 17 22 22 23 23 28 31 32 33 34 41 41 40 34 33 30 30 32 34 35 38 35 39 37 40 42 44 46 49 50 50 49 52 50 51 55 49
26 24 24 22 21 17 12 15 19 20 24 27 28 30 32 35 36 38 40 41 41 38 32 30 30 31 32 34 36 34 31 33 33 36 41 46 49 49 49 49 50 53 56 56 58
28 27 27 24 24 19 18 20 24 24 26 29 31 35 38 39 39 38 41 41 40 41 37 33 31 30 31 29 26 29 28 36 40 43 47 50 52 50 51 51 58 63 64 63 57
30 28 27 25 25 22 23 24 25 24 26 30 32 34 36 38 38 40 42 43 42 43 40 36 32 27 25 26 28 33 33 35 36 39 48 52 55 52 58 63 64 67 60 59 65
32 31 28 27 27 27 28 30 31 30 31 35 37 39 42 39 43 44 44 43 40 43 41 35 29 29 27 24 31 36 37 40 46 44 47 56 58 59 65 69 68 64 64 71 71
32 31 30 31 31 30 32 34 32 32 33 36 38 40 42 44 46 45 44 45 45 46 41 36 28 27 25 25 30 35 44 45 51 51 54 56 65 61 67 68 69 70 71 82 83
33 32 32 33 34 34 36 37 35 36 38 40 43 44 48 45 48 48 51 52 51 46 39 35 33 30 31 32 40 42 45 52 55 53 57 55 65 69 69 71 74 79 75 72 75
34 35 36 37 36 35 37 40 37 38 40 44 48 52 45 45 49 52 53 52 53 50 41 38 33 33 37 39 42 40 48 52 54 54 57 59 63 69 72 72 74 76 75 73 77
35 36 39 41 40 40 40 38 39 42 43 45 50 44 49 54 54 52 50 51 52 50 47 38 34 36 38 40 40 43 45 48 52 52 54 56 60 66 69 70 65 73 80 81 81
39 40 43 42 41 42 40 38 44 47 50 48 47 50 55 58 57 51 49 46 46 45 40 36 38 36 38 39 34 38 40 49 53 58 61 61 67 65 70 74 78 82 82 81 85
43 43 44 44 45 45 45 46 45 50 52 53 53 54 59 59 55 52 46 45 45 43 41 41 36 37 38 41 43 46 46 51 56 59 62 64 68 69 74 76 79 83 88 89 92
44 45 47 48 45 44 43 44 50 52 51 52 54 58 57 57 54 49 46 47 44 45 41 42 41 42 46 46 49 53 54 57 58 64 67 72 73 81 81 83 88 88 89 93 102
45 43 43 43 46 46 47 50 53 56 53 52 56 57 56 56 55 50 51 51 44 39 44 42 43 46 49 55 56 56 58 62 65 65 69 74 75 82 82 85 86 92 97 102 112
46 48 48 48 51 53 52 53 53 56 58 56 58 53 52 52 52 52 50 46 50 52 50 47 49 53 56 60 64 64 65 66 68 73 75 77 76 84 96 98 95 98 107 112 118
50 50 51 50 53 54 56 56 57 59 58 60 54 53 55 57 56 51 56 56 55 56 51 53 56 56 60 64 65 65 69 68 72 66 70 76 86 89 99 102 107 110 111 119 122
53 53 53 55 58 58 60 58 56 58 59 55 54 54 56 60 54 56 56 56 64 60 60 56 56 60 63 67 65 67 73 71 74 79 86 89 95 93 99 102 111 113 114 124 127
61 58 57 60 61 61 53 55 56 57 60 59 59 60 63 62 58 62 65 68 68 69 69 60 57 61 63 67 72 72 75 79 81 86 90 95 107 107 105 113 114 121 127 130 133
62 60 62 63 61 57 56 52 55 58 58 61 63 62 63 66 67 67 61 66 70 72 70 68 68 68 69 74 82 78 82 89 96 97 99 99 109 114 111 123 126 125 134 136 141
62 58 57 62 59 59 56 54 58 61 65 65 68 68 69 71 69 71 66 69 69 71 71 73 76 81 81 86 90 90 91 96 100 103 104 107 111 119 125 127 130 135 140 138 144
71 62 60 66 63 61 59 59 62 65 69 70 74 75 76 78 75 75 74 71 76 80 78 83 82 84 83 86 91 93 101 105 109 112 112 117 116 116 129 138 131 136 138 139 147
72 67 66 69 67 64 62 64 67 67 72 77 79 81 83 83 76 77 79 82 84 85 80 82 87 86 86 87 92 97 102 105 109 115 118 126 118 129 130 138 132 139 141 145 152
75 73 71 71 70 70 68 70 70 70 73 81 83 83 88 91 90 84 83 89 87 92 91 90 92 97 95 98 95 95 102 107 115 114 121 130 130 131 140 135 138 140 146 151 156
82 78 78 77 72 76 74 70 71 74 86 90 88 89 93 89 90 84 94 90 90 88 94 97 90 94 96 103 107 106 107 114 118 122 127 129 132 131 142 141 141 142 149 155 160
88 80 79 78 78 79 81 80 79 83 89 91 89 94 97 91 96 96 95 95 100 101 102 104 106 105 106 109 109 109 113 118 123 123 129 127 133 136 138 141 144 148 155 158 163
91 87 93 86 86 90 85 79 82 84 93 87 91 97 95 94 102 102 103 102 103 107 108 110 107 107 106 108 114 117 119 124 128 129 131 132 132 140 140 146 144 154 158 163 164
96 95 100 91 92 88 80 86 87 92 87 91 99 102 98 100 103 103 107 110 108 113 115 117 118 119 114 117 118 117 126 129 131 132 135 137 137 138 144 147 153 156 161 163 166
Wind_Direction
200 217 238 244 258 275 284 309 321 317 320 326 325 327 346 348 346 347 349 351 352 349 341 331 312 308 309 313 321 316 318 329 325 318 319 323 327 327 331 332 335 335 332 333 338
208 222 234 244 255 276 292 311 309 311 315 322 324 324 332 336 343 342 342 345 347 346 339 333 321 315 318 319 317 321 327 331 330 322 324 322 323 326 329 332 333 335 335 332 337
212 225 236 244 256 275 289 295 300 293 301 304 316 319 326 330 333 333 336 338 340 341 334 328 327 325 319 321 322 323 331 338 335 335 328 325 324 328 329 333 336 331 333 330 333
218 226 236 247 261 274 284 293 296 292 299 298 304 313 317 326 331 327 326 330 331 331 332 323 321 323 325 323 324 327 330 329 332 331 330 324 327 325 327 328 329 325 327 328 332
221 228 238 248 260 269 280 291 294 294 300 304 309 311 316 319 324 326 323 322 323 326 323 321 316 316 317 317 311 312 318 325 332 332 328 324 326 325 326 326 325 326 322 327 333
219 229 238 250 262 272 283 289 295 296 301 305 306 309 310 311 317 323 323 322 318 321 319 313 311 312 307 303 315 316 320 319 316 323 327 326 323 322 324 326 326 323 322 324 332
223 233 243 253 261 271 281 286 295 302 299 303 308 312 316 314 319 319 319 317 314 318 316 311 301 299 295 285 303 315 313 316 315 319 318 323 322 325 328 330 325 330 328 324 325
232 237 245 254 263 271 279 285 289 292 298 306 310 309 312 312 316 315 317 318 315 315 312 311 297 290 286 289 296 304 305 309 311 315 319 324 324 322 325 324 321 320 322 326 331
237 243 249 258 263 271 279 284 288 293 299 303 305 307 311 315 311 311 313 315 315 315 311 310 301 292 293 298 300 300 305 306 309 318 322 327 327 324 324 320 319 317 317 325 322
244 249 253 256 264 275 279 288 293 295 302 304 307 309 307 313 312 313 315 314 318 319 315 312 307 303 301 300 295 301 309 316 316 318 319 319 321 319 318 317 319 318 323 321 327
245 249 257 263 269 272 277 285 292 299 300 300 306 305 310 313 313 314 313 316 319 320 317 308 310 301 298 300 306 309 311 308 310 312 314 319 319 318 315 315 316 316 320 325 327
250 254 261 265 267 272 278 286 290 295 298 302 305 307 308 309 310 312 313 316 317 317 318 315 306 299 299 303 301 304 306 308 311 317 319 319 314 321 321 326 325 317 316 329 328
257 260 263 268 276 282 286 286 288 291 298 300 303 304 307 308 308 309 310 309 315 316 319 316 309 303 309 314 313 311 308 312 315 314 315 313 319 319 317 319 324 323 327 327 332
257 263 269 273 278 279 282 285 287 290 294 296 298 301 306 307 305 306 309 313 315 313 315 317 317 318 313 314 317 313 309 310 311 311 311 314 324 323 327 322 326 327 328 331 338
265 265 269 271 275 279 282 284 287 289 292 294 295 300 307 310 309 307 311 312 315 314 314 316 314 315 316 315 314 314 315 315 313 307 307 310 312 315 320 324 332 336 338 335 338
264 264 269 275 277 276 279 283 285 286 293 293 294 301 304 308 312 313 316 314 316 315 314 315 314 312 314 314 313 310 308 309 314 315 314 317 326 318 323 327 334 338 335 335 336
262 265 271 270 272 276 277 279 280 287 287 289 295 304 306 308 312 315 316 316 319 311 306 302 305 307 310 306 309 311 311 311 316 313 314 318 331 324 328 328 337 332 332 336 334
268 270 271 272 273 275 277 278 286 283 286 290 295 301 304 305 312 313 317 318 317 317 312 313 316 315 307 310 311 307 307 310 314 320 318 314 330 329 326 332 334 333 335 336 333
265 266 269 272 273 276 280 284 285 283 287 288 296 301 304 308 311 314 315 315 317 315 309 311 312 311 315 314 313 311 312 309 309 314 325 327 327 328 328 338 336 331 337 334 334
264 265 270 272 274 277 282 283 282 283 289 292 299 305 308 308 310 311 314 311 311 308 310 309 306 309 309 310 309 314 316 318 319 319 323 331 331 326 332 335 335 332 334 331 332
263 263 267 271 274 282 285 280 282 286 289 295 299 305 304 305 307 308 313 309 309 308 304 306 308 313 309 313 313 312 310 312 314 318 322 326 333 323 333 334 331 329 329 328 330
259 266 267 272 278 281 278 278 280 286 292 295 299 300 303 304 306 308 307 308 310 309 309 309 310 310 316 315 312 313 313 316 318 319 324 324 333 328 327 332 326 327 327 328 329
260 266 269 272 276 278 275 277 284 292 293 294 297 299 302 303 304 309 307 305 306 308 308 308 308 309 312 311 312 314 314 314 318 319 322 327 326 328 328 329 324 325 326 326 328
262 266 271 272 280 276 275 282 289 294 293 293 297 300 300 300 303 302 300 303 304 309 309 305 309 310 312 310 311 315 315 314 315 320 324 325 329 321 327 324 325 321 325 326 328
271 273 278 279 276 275 279 284 289 293 290 292 297 300 297 301 302 302 299 303 304 302 303 304 305 310 309 309 312 314 315 313 316 318 321 323 323 321 323 322 321 322 324 326 326
271 272 275 277 275 277 285 291 285 287 289 295 296 296 295 299 295 298 298 297 301 303 302 302 303 308 310 311 310 312 310 313 316 318 320 320 319 321 318 320 320 321 324 325 327
273 275 274 276 278 283 290 285 286 286 288 290 293 291 291 292 294 294 296 299 299 302 302 301 306 307 311 311 313 315 308 309 314 316 317 318 318 316 317 318 319 321 323 325 325
Height
10862 10864 10865 10866 10865 10865 10865 10865 10864 10863 10861 10859 10856 10853 10850 10845 10840 10835 10831 10826 10822 10819 10815 10812 10810 10806 10802 10799 10795 10792 10788 10782 10776 10767 10760 10753 10750 10745 10741 10738 10733 10728 10721 10717 10712
10859 10861 10861 10862 10862 10862 10862 10862 10861 10860 10858 10855 10853 10849 10845 10842 10838 10833 10828 10823 10819 10817 10813 10809 10806 10803 10798 10794 10790 10786 10782 10777 10772 10763 10754 10749 10746 10740 10735 10731 10726 10719 10714 10708 10702
10856 10857 10857 10858 10858 10859 10858 10858 10858 10857 10855 10851 10848 10845 10841 10838 10834 10830 10827 10822 10818 10813 10810 10806 10802 10798 10793 10788 10784 10780 10776 10772 10766 10759 10750 10743 10739 10734 10729 10725 10719 10708 10701 10697 10691
10852 10852 10853 10854 10855 10855 10855 10854 10854 10853 10851 10847 10844 10840 10836 10833 10831 10827 10822 10819 10814 10810 10807 10801 10797 10794 10789 10784 10779 10774 10770 10766 10761 10754 10744 10736 10730 10727 10720 10717 10711 10703 10696 10688 10682
10847 10849 10850 10850 10850 10850 10850 10850 10849 10849 10846 10843 10839 10835 10832 10829 10826 10822 10819 10814 10809 10806 10801 10797 10793 10789 10785 10780 10772 10766 10763 10757 10754 10750 10740 10729 10723 10721 10711 10707 10701 10691 10684 10679 10673
10841 10843 10844 10846 10845 10845 10845 10844 10844 10842 10840 10836 10832 10829 10827 10823 10820 10818 10814 10810 10805 10801 10796 10791 10786 10782 10778 10773 10767 10759 10753 10750 10746 10743 10734 10724 10718 10713 10704 10694 10684 10683 10674 10668 10659
10837 10839 10840 10840 10840 10840 10839 10838 10837 10836 10833 10830 10827 10822 10820 10817 10813 10810 10807 10803 10799 10795 10790 10786 10781 10777 10772 10767 10761 10754 10746 10743 10738 10735 10727 10718 10702 10706 10697 10686 10673 10667 10656 10652 10646
10832 10833 10834 10834 10834 10835 10833 10831 10830 10828 10826 10823 10820 10816 10813 10810 10806 10802 10798 10793 10788 10784 10781 10778 10773 10770 10766 10761 10756 10749 10743 10733 10728 10725 10719 10714 10703 10689 10691 10681 10672 10665 10658 10649 10639
10826 10828 10828 10827 10828 10827 10826 10824 10822 10821 10819 10816 10813 10810 10805 10803 10799 10795 10790 10783 10778 10774 10771 10769 10765 10761 10757 10754 10748 10745 10734 10725 10718 10715 10708 10701 10696 10686 10679 10669 10663 10654 10646 10633 10624
10819 10820 10820 10819 10820 10820 10818 10816 10814 10811 10812 10808 10804 10801 10797 10794 10789 10785 10780 10775 10770 10765 10762 10758 10756 10752 10748 10745 10742 10735 10726 10715 10708 10705 10700 10695 10689 10681 10670 10658 10653 10643 10631 10620 10610
10811 10812 10812 10813 10812 10811 10810 10808 10806 10803 10799 10800 10797 10794 10787 10782 10778 10774 10771 10768 10763 10758 10755 10750 10747 10744 10739 10736 10731 10728 10720 10707 10699 10693 10690 10684 10675 10669 10659 10650 10636 10626 10616 10606 10590
10803 10803 10802 10803 10804 10802 10801 10799 10797 10796 10790 10785 10785 10782 10777 10773 10769 10765 10762 10761 10756 10750 10746 10741 10739 10733 10728 10724 10720 10714 10709 10698 10690 10683 10679 10676 10669 10659 10649 10636 10624 10612 10601 10585 10573
10795 10796 10794 10794 10794 10794 10793 10790 10787 10786 10786 10780 10776 10773 10769 10764 10761 10757 10753 10751 10747 10741 10737 10732 10728 10724 10719 10713 10710 10703 10698 10690 10682 10674 10665 10661 10658 10647 10637 10623 10608 10594 10581 10563 10546
10785 10787 10786 10785 10785 10784 10784 10781 10778 10775 10777 10774 10768 10764 10762 10756 10753 10748 10743 10739 10736 10732 10730 10726 10719 10714 10708 10702 10697 10693 10685 10678 10671 10666 10656 10640 10639 10622 10614 10602 10592 10569 10554 10536 10517
10775 10776 10775 10775 10774 10774 10773 10770 10767 10764 10766 10763 10759 10756 10752 10747 10742 10739 10733 10731 10723 10719 10717 10715 10709 10705 10699 10690 10684 10679 10672 10666 10658 10651 10648 10630 10620 10606 10589 10574 10568 10549 10529 10510 10493
10763 10764 10764 10764 10763 10763 10761 10759 10756 10753 10753 10750 10747 10745 10741 10736 10733 10729 10723 10716 10712 10708 10704 10700 10695 10689 10685 10678 10670 10663 10658 10651 10642 10635 10629 10621 10603 10592 10566 10548 10534 10516 10505 10489 10470
10750 10751 10752 10752 10751 10751 10750 10748 10746 10744 10738 10740 10735 10734 10730 10724 10721 10715 10712 10705 10694 10694 10690 10692 10685 10676 10668 10662 10657 10646 10639 10634 10628 10615 10607 10593 10583 10573 10555 10538 10513 10498 10485 10467 10448
10739 10740 10740 10738 10737 10737 10738 10738 10737 10732 10725 10725 10723 10722 10717 10709 10710 10703 10700 10692 10684 10673 10672 10672 10669 10662 10655 10646 10637 10632 10621 10610 10602 10596 10593 10575 10548 10541 10531 10512 10491 10475 10458 10443 10425
10724 10727 10726 10724 10724 10725 10726 10726 10725 10716 10715 10711 10710 10708 10702 10696 10689 10688 10688 10679 10671 10663 10654 10652 10653 10650 10642 10632 10622 10615 10605 10592 10578 10574 10566 10561 10536 10519 10507 10484 10471 10449 10432 10416 10394
10709 10713 10714 10708 10710 10711 10713 10715 10708 10703 10700 10697 10693 10691 10686 10678 10679 10670 10673 10669 10661 10650 10643 10639 10634 10635 10627 10617 10605 10595 10583 10567 10553 10541 10535 10536 10520 10480 10469 10459 10445 10421 10406 10392 10372
10693 10697 10700 10693 10696 10699 10702 10700 10695 10691 10685 10681 10676 10672 10667 10661 10660 10656 10657 10652 10643 10636 10629 10623 10617 10614 10607 10601 10586 10578 10564 10549 10533 10521 10505 10499 10508 10463 10446 10428 10421 10402 10390 10374 10356
10673 10682 10686 10681 10682 10686 10688 10681 10680 10680 10671 10664 10660 10654 10650 10642 10642 10641 10634 10626 10625 10617 10611 10603 10596 10593 10585 10578 10569 10558 10545 10532 10516 10498 10489 10466 10478 10442 10423 10414 10398 10382 10368 10350 10333
10656 10664 10669 10669 10669 10669 10669 10667 10665 10661 10657 10649 10645 10640 10633 10627 10615 10617 10615 10608 10606 10600 10593 10588 10580 10569 10565 10553 10548 10539 10521 10506 10494 10480 10470 10444 10431 10411 10401 10397 10376 10356 10342 10327 10311
10638 10649 10653 10656 10656 10652 10648 10654 10650 10648 10639 10628 10630 10621 10613 10609 10604 10608 10588 10592 10587 10581 10574 10566 10562 10556 10547 10532 10516 10510 10500 10486 10470 10457 10447 10427 10421 10392 10375 10368 10357 10340 10323 10304 10287
10622 10634 10636 10640 10639 10631 10630 10642 10638 10633 10617 10612 10616 10603 10589 10595 10584 10582 10573 10568 10568 10562 10555 10547 10540 10531 10525 10515 10499 10490 10476 10460 10448 10436 10420 10419 10391 10376 10364 10349 10337 10315 10308 10288 10273
10606 10612 10613 10624 10615 10615 10623 10631 10617 10613 10594 10601 10595 10579 10579 10582 10562 10559 10552 10549 10546 10541 10531 10522 10513 10507 10501 10491 10478 10473 10456 10438 10422 10412 10402 10389 10382 10352 10339 10325 10313 10296 10280 10265 10244
10586 10588 10579 10606 10595 10597 10615 10602 10598 10584 10586 10581 10570 10565 10564 10561 10547 10541 10535 10530 10522 10519 10508 10498 10488 10477 10473 10460 10451 10455 10437 10420 10406 10393 10373 10361 10352 10343 10321 10303 10286 10280 10259 10235 10220